Marco Island, FL

12:19 PM EDT on September 29, 2016 (GMT -0400)
Marco Island

Weather History for KMKY - September, 2013

Change the Weather History Date:

Tuesday, September 10, 2013

  Actual Average (KAPF) Record (KAPF)
Temperature  
Mean Temperature 82 °F 83 °F  
Max Temperature 91 °F 90 °F 95 °F (1978)
Min Temperature 73 °F 75 °F 70 °F (1980)
Degree Days  
Heating Degree Days 0 0  
Month to date heating degree days 0  
Since 1 July heating degree days 0  
Cooling Degree Days 17 18  
Month to date cooling degree days 180  
Year to date cooling degree days 2837  
Growing Degree Days 32 (Base 50)    
Moisture  
Dew Point 66 °F    
Average Humidity 64    
Maximum Humidity 73    
Minimum Humidity 43    
Precipitation  
Precipitation 0.01 in 0.25 in 2.72 in (2002)
Month to date precipitation 2.44  
Year to date precipitation 38.96  
Snow  
Snow - - - ()
Month to date snowfall  
Since 1 July snowfall  
Since 1 September snowfall  
Snow Depth -    
Sea Level Pressure  
Sea Level Pressure 30.00 in    
Wind  
Wind Speed 7 mph ()    
Max Wind Speed 20 mph    
Max Gust Speed 24 mph    
Visibility 10.0 miles    
Events Thunderstorm    
T = Trace of Precipitation, MM = Missing Value Source: Averaged Metar Reports

Daily Weather History Graph

Daily Weather History Graph

Search for Another Location

Airport or City:

Trip Planner

Search our weather history database for the weather conditions in past years. The results will help you decide how hot, cold, wet, or windy it might be!

Date:

Astronomy

Sep. 10, 2013 Rise Set
Actual Time 7:10 AM EDT 7:36 PM EDT
Civil Twilight 6:47 AM EDT 7:59 PM EDT
Nautical Twilight 6:20 AM EDT 8:26 PM EDT
Astronomical Twilight 5:52 AM EDT 8:53 PM EDT
Moon 12:00 PM EDT (9/10) 11:13 PM EDT (9/10)
Length of Visible Light 13h 11m
Length of Day
12h 25m
Waxing Crescent, 28% of the Moon is Illuminated
Sep 10
Waxing Crescent
Sep 12
First Quarter
Sep 19
Full
Sep 26
Last Quarter
Oct 4
New

Hourly Weather History & Observations

Time (EDT) Temp. Heat Index Dew Point Humidity Pressure Visibility Wind Dir Wind Speed Gust Speed Precip Events Conditions
12:15 AM 77.0 °F - 66.2 °F 69% 29.99 in 10.0 mi NNE 6.9 mph - N/A   Clear
12:35 AM 77.0 °F - 66.2 °F 69% 29.99 in 10.0 mi NE 5.8 mph - N/A   Clear
12:55 AM 77.0 °F - 66.2 °F 69% 29.98 in 10.0 mi NNE 4.6 mph - N/A   Clear
1:15 AM 77.0 °F - 66.2 °F 69% 29.98 in 10.0 mi NNE 6.9 mph - N/A   Clear
1:35 AM 75.2 °F - 66.2 °F 73% 29.98 in 10.0 mi NE 4.6 mph - N/A   Clear
1:55 AM 75.2 °F - 66.2 °F 73% 29.97 in 10.0 mi East 4.6 mph - N/A   Clear
2:15 AM 75.2 °F - 66.2 °F 73% 29.97 in 10.0 mi Calm Calm - 0.01 in   Clear
2:35 AM 75.2 °F - 66.2 °F 73% 29.96 in 10.0 mi NE 6.9 mph - 0.01 in   Clear
2:55 AM 75.2 °F - 66.2 °F 73% 29.97 in 10.0 mi NE 9.2 mph - 0.01 in   Clear
3:15 AM 75.2 °F - 66.2 °F 73% 29.96 in 10.0 mi NNE 5.8 mph - N/A   Clear
3:35 AM 75.2 °F - 66.2 °F 73% 29.96 in 10.0 mi ENE 6.9 mph - N/A   Clear
3:55 AM 75.2 °F - 64.4 °F 69% 29.96 in 10.0 mi NE 5.8 mph - N/A   Clear
4:15 AM 75.2 °F - 64.4 °F 69% 29.96 in 10.0 mi NE 6.9 mph - N/A   Clear
4:35 AM 75.2 °F - 64.4 °F 69% 29.97 in 10.0 mi NE 6.9 mph - N/A   Clear
4:55 AM 75.2 °F - 64.4 °F 69% 29.97 in 10.0 mi NE 5.8 mph - N/A   Clear
5:15 AM 75.2 °F - 64.4 °F 69% 29.97 in 10.0 mi NNE 5.8 mph - N/A   Clear
5:35 AM 75.2 °F - 64.4 °F 69% 29.97 in 10.0 mi NE 6.9 mph - N/A   Clear
5:55 AM 75.2 °F - 64.4 °F 69% 29.98 in 10.0 mi NNE 6.9 mph - N/A   Clear
6:15 AM 75.2 °F - 64.4 °F 69% 29.98 in 10.0 mi NE 8.1 mph - N/A   Clear
6:35 AM 73.4 °F - 64.4 °F 73% 29.99 in 10.0 mi NE 6.9 mph - N/A   Clear
6:55 AM 73.4 °F - 64.4 °F 73% 29.99 in 10.0 mi ENE 6.9 mph - N/A   Clear
7:15 AM 73.4 °F - 64.4 °F 73% 29.99 in 10.0 mi NE 6.9 mph - N/A   Clear
7:35 AM 75.2 °F - 64.4 °F 69% 30.00 in 10.0 mi NE 9.2 mph - N/A   Clear
7:55 AM 75.2 °F - 64.4 °F 69% 30.01 in 10.0 mi NE 8.1 mph - N/A   Clear
8:15 AM 77.0 °F - 64.4 °F 65% 30.01 in 10.0 mi NE 8.1 mph - N/A   Clear
8:35 AM 78.8 °F - 64.4 °F 61% 30.02 in 10.0 mi NE 6.9 mph - N/A   Clear
8:55 AM 78.8 °F - 66.2 °F 65% 30.02 in 10.0 mi ENE 9.2 mph - N/A   Clear
9:15 AM 80.6 °F 82.7 °F 66.2 °F 61% 30.03 in 10.0 mi ENE 9.2 mph 16.1 mph N/A   Clear
9:35 AM 82.4 °F 85.4 °F 68.0 °F 62% 30.03 in 10.0 mi ENE 6.9 mph - N/A   Clear
9:55 AM 82.4 °F 85.4 °F 68.0 °F 62% 30.03 in 10.0 mi ENE 6.9 mph - N/A   Clear
10:15 AM 84.2 °F 88.4 °F 69.8 °F 62% 30.03 in 10.0 mi NE 12.7 mph - N/A   Clear
10:35 AM 84.2 °F 87.3 °F 68.0 °F 58% 30.04 in 10.0 mi ENE 9.2 mph - N/A   Scattered Clouds
10:55 AM 86.0 °F 89.4 °F 68.0 °F 55% 30.04 in 10.0 mi ENE 11.5 mph - N/A   Scattered Clouds
11:15 AM 87.8 °F 91.4 °F 68.0 °F 52% 30.04 in 10.0 mi East 12.7 mph - N/A   Scattered Clouds
11:35 AM 87.8 °F 90.4 °F 66.2 °F 49% 30.03 in 10.0 mi ENE 10.4 mph - N/A   Scattered Clouds
11:55 AM 87.8 °F 91.4 °F 68.0 °F 52% 30.03 in 10.0 mi ENE 11.5 mph 17.3 mph N/A   Partly Cloudy
12:15 PM 89.6 °F 93.4 °F 68.0 °F 49% 30.03 in 10.0 mi East 13.8 mph 18.4 mph N/A   Clear
12:35 PM 89.6 °F 93.4 °F 68.0 °F 49% 30.02 in 10.0 mi NE 10.4 mph - N/A   Partly Cloudy
12:55 PM 89.6 °F 93.4 °F 68.0 °F 49% 30.01 in 10.0 mi ENE 11.5 mph 16.1 mph N/A   Partly Cloudy
1:15 PM 89.6 °F 93.4 °F 68.0 °F 49% 30.01 in 10.0 mi ENE 10.4 mph 16.1 mph N/A   Partly Cloudy
1:35 PM 89.6 °F 94.7 °F 69.8 °F 52% 30.01 in 10.0 mi NE 11.5 mph 16.1 mph N/A   Partly Cloudy
1:55 PM 91.4 °F 95.4 °F 68.0 °F 46% 30.00 in 10.0 mi ENE 12.7 mph 18.4 mph N/A   Scattered Clouds
2:15 PM 89.6 °F 92.2 °F 66.2 °F 46% 29.99 in 10.0 mi East 9.2 mph - N/A   Mostly Cloudy
2:35 PM 89.6 °F 92.2 °F 66.2 °F 46% 29.99 in 10.0 mi East 10.4 mph - N/A   Mostly Cloudy
2:55 PM 91.4 °F 94.0 °F 66.2 °F 43% 29.98 in 10.0 mi ENE 10.4 mph 17.3 mph N/A   Partly Cloudy
3:15 PM 89.6 °F 93.4 °F 68.0 °F 49% 29.98 in 10.0 mi NE 13.8 mph 20.7 mph N/A   Mostly Cloudy
3:35 PM 80.6 °F 82.7 °F 66.2 °F 61% 29.99 in 10.0 mi East 10.4 mph - N/A Thunderstorm Thunderstorm
3:55 PM 82.4 °F 84.6 °F 66.2 °F 58% 29.97 in 10.0 mi NE 5.8 mph - N/A Thunderstorm Scattered Clouds
4:15 PM 82.4 °F 83.9 °F 64.4 °F 54% 29.98 in 10.0 mi ENE 12.7 mph - N/A Thunderstorm Partly Cloudy
4:35 PM 82.4 °F 83.9 °F 64.4 °F 54% 29.98 in 10.0 mi ENE 6.9 mph - N/A   Mostly Cloudy
4:55 PM 84.2 °F 86.6 °F 66.2 °F 55% 29.98 in 10.0 mi ESE 8.1 mph - N/A   Mostly Cloudy
5:15 PM 82.4 °F 84.6 °F 66.2 °F 58% 29.97 in 10.0 mi ESE 8.1 mph - N/A   Mostly Cloudy
5:35 PM 82.4 °F 85.4 °F 68.0 °F 62% 29.98 in 10.0 mi East 9.2 mph - N/A   Clear
5:55 PM 84.2 °F 87.3 °F 68.0 °F 58% 29.98 in 10.0 mi East 5.8 mph - N/A   Clear
6:15 PM 82.4 °F 85.4 °F 68.0 °F 62% 30.01 in 10.0 mi East 16.1 mph 20.7 mph N/A   Mostly Cloudy
6:35 PM 78.8 °F - 66.2 °F 65% 30.02 in 10.0 mi East 19.6 mph 24.2 mph N/A   Overcast
6:55 PM 78.8 °F - 66.2 °F 65% 30.02 in 10.0 mi ESE 19.6 mph 24.2 mph N/A   Scattered Clouds
7:15 PM 77.0 °F - 64.4 °F 65% 30.01 in 10.0 mi East 11.5 mph 20.7 mph N/A   Clear
7:35 PM 75.2 °F - 64.4 °F 69% 30.00 in 10.0 mi East 8.1 mph - N/A   Scattered Clouds
7:55 PM 75.2 °F - 64.4 °F 69% 30.01 in 10.0 mi East 4.6 mph - N/A   Partly Cloudy
8:15 PM 75.2 °F - 64.4 °F 69% 30.01 in 10.0 mi East 5.8 mph - N/A   Clear
8:35 PM 75.2 °F - 64.4 °F 69% 30.02 in 10.0 mi NE 5.8 mph - N/A   Clear
8:55 PM 75.2 °F - 64.4 °F 69% 30.02 in 10.0 mi East 4.6 mph - N/A   Clear
9:15 PM 75.2 °F - 66.2 °F 73% 30.02 in 10.0 mi East 3.5 mph - N/A   Clear
9:35 PM 75.2 °F - 66.2 °F 73% 30.02 in 10.0 mi NE 3.5 mph - N/A   Clear
9:55 PM 77.0 °F - 66.2 °F 69% 30.02 in 10.0 mi ENE 5.8 mph - N/A   Clear
10:15 PM 77.0 °F - 66.2 °F 69% 30.03 in 10.0 mi ENE 6.9 mph - N/A   Clear
10:35 PM 77.0 °F - 66.2 °F 69% 30.04 in 10.0 mi ENE 5.8 mph - N/A   Clear
10:55 PM 77.0 °F - 66.2 °F 69% 30.04 in 10.0 mi ENE 5.8 mph - N/A   Clear
11:15 PM 77.0 °F - 66.2 °F 69% 30.03 in 10.0 mi NE 8.1 mph - N/A   Clear
11:35 PM 77.0 °F - 66.2 °F 69% 30.03 in 10.0 mi ENE 4.6 mph - N/A   Clear
11:55 PM 75.2 °F - 66.2 °F 73% 30.03 in 10.0 mi NE 5.8 mph - N/A   Clear